{"data":{"norad_id":65763,"intl_designator":"2025-217B","name":"KUIPER-00132","alt_names":[],"object_type":"PAYLOAD","status":"ACTIVE","operator":null,"country":"US","launch_date":"2025-09-25","launch_site_code":"AFETR","launch_vehicle":null,"mission":null,"orbit_class":"UNKNOWN","rcs_meters":null,"size_class":null,"mass_kg":null,"dimensions":null,"purposes":[],"wikipedia_slug":null,"has_3d_model":false,"image_url":null,"decayed_at":null,"tle_current":{"epoch":"2026-05-24T22:45:11.454336Z","epoch_age_seconds":90023,"freshness":"FRESH","line1":"1 65763U 25217B   26144.94804924  .00027741  00000+0  64908-3 0  9991","line2":"2 65763  51.8566 352.5884 0005789 229.2064 130.8423 15.41910214 37187","mean_motion":15.41910214,"eccentricity":0.0005789,"inclination_deg":51.8566,"raan_deg":352.5884,"arg_perigee_deg":229.2064,"mean_anomaly_deg":130.8423,"bstar":0.00064908,"rev_number":3718,"period_min":93.390651863209,"perigee_km":436.52466115752,"apogee_km":444.41924660432,"semimajor_km":6818.6089538809,"source":"CELESTRAK","updated_at":"2026-05-25T13:38:05.658294Z"}}}